Flag for Netherlands Weather past 2 weeks in Apeldoorn, Netherlands

Now
59 °F

Drizzle. Broken clouds.


Feels Like: 56 °F
Forecast: 48 / 62 °F
Wind: 14 mph from Southwest

Location: Deelen

Current Time: Aug 22, 2014 at 4:20:00 PM

Latest Report: Aug 22, 2014 at 3:55 PM


Visibility: N/A

Pressure: 29.80 "Hg

Humidity: 82%

Dew point: 54 °F

Location of ApeldoornLocation

Historic Weather in Apeldoorn — Graph

°F

Apeldoorn temperature yesterday

Maximum temperature yesterday: 63 °F (at 1:25 PM)
Minimum temperature yesterday: 45 °F (at 5:55 AM)
Average temperature yesterday: 54 °F

Past Weeks' High & Low Weather Summary

 TemperatureHumidityPressure
High77 °F (Aug 8, 2:55 PM)100% (Aug 7, 9:55 PM)30.09 "Hg (Aug 7, 9:55 PM)
Low45 °F (Aug 21, 5:55 AM)49% (Aug 11, 1:55 PM)29.50 "Hg (Aug 10, 6:25 PM)
Average59 °F84%29.82 "Hg
* Reported Aug 7 2:25 PM — Aug 22 2:55 PM, Apeldoorn, Weather by CustomWeather, © 2014

Note: Actual official high and low records may vary slightly from our data, if they occured in-between our weather recording intervals... More about our weather records

Advertising

Apeldoorn weather history for previous 24 hours

 ConditionsComfort  
Time TempWeatherWind HumidityBarometerVisibility
2:55 PM
Aug 22
61 °FBroken clouds.12 mph77%29.83 "HgN/A
2:25 PM61 °FLight rain. Broken clouds.10 mph77%29.83 "HgN/A
1:55 PM59 °FPartly sunny.8 mph82%29.83 "HgN/A
1:25 PM59 °FLight rain. Broken clouds.18 mph77%29.83 "HgN/A
12:55 PM61 °FBroken clouds.16 mph68%29.83 "HgN/A
12:25 PM61 °FBroken clouds.16 mph68%29.83 "HgN/A
11:55 AM63 °FOvercast.16 mph64%29.83 "HgN/A
11:25 AM61 °FOvercast.17 mph63%29.83 "HgN/A
10:55 AM61 °FOvercast.14 mph68%29.83 "HgN/A
10:25 AM59 °FOvercast.15 mph72%29.83 "HgN/A
9:55 AM57 °FPartly sunny.13 mph77%29.83 "HgN/A
9:25 AM57 °FOvercast.13 mph77%29.83 "HgN/A
8:55 AM55 °FScattered clouds.10 mph77%29.83 "HgN/A
8:25 AM54 °FBroken clouds.10 mph82%29.83 "HgN/A
7:55 AM54 °FOvercast.9 mph82%29.83 "HgN/A
7:25 AM54 °FOvercast.9 mph82%29.86 "HgN/A
6:55 AM52 °FOvercast.10 mph88%29.86 "HgN/A
6:25 AM52 °FMostly cloudy.9 mph88%29.86 "HgN/A
5:55 AM52 °FMostly cloudy.9 mph88%29.86 "HgN/A
5:25 AM52 °FOvercast.9 mph88%29.86 "HgN/A
4:55 AM52 °FPassing clouds.9 mph82%29.86 "HgN/A
4:25 AM52 °FPassing clouds.8 mph82%29.86 "HgN/A
3:55 AM52 °FCool.6 mph82%29.89 "HgN/A
3:25 AM52 °FPassing clouds.8 mph88%29.89 "HgN/A
2:55 AM52 °FOvercast.8 mph88%29.89 "HgN/A
2:25 AM54 °FPassing clouds.7 mph82%29.89 "HgN/A
1:55 AM54 °FOvercast.8 mph82%29.92 "HgN/A
1:25 AM54 °FPassing clouds.8 mph88%29.92 "HgN/A
12:55 AM54 °FOvercast.7 mph88%29.92 "HgN/A
12:25 AM52 °FPassing clouds.6 mph94%29.92 "HgN/A
11:55 PM
Aug 21
52 °FOvercast.6 mph94%29.92 "HgN/A
11:25 PM54 °FPassing clouds.6 mph88%29.92 "HgN/A
10:55 PM54 °FPassing clouds.6 mph88%29.92 "HgN/A
10:25 PM55 °FPartly cloudy.6 mph88%29.92 "HgN/A
9:55 PM57 °FPartly cloudy.5 mph82%29.92 "HgN/A
9:25 PM57 °FMore clouds than sun.3 mph88%29.92 "HgN/A
8:55 PM57 °FMostly cloudy.3 mph88%29.92 "HgN/A
7:55 PM59 °FCloudy.5 mph77%29.92 "HgN/A
7:25 PM61 °FPartly sunny.3 mph72%29.95 "HgN/A
6:55 PM61 °FOvercast.5 mph72%29.95 "HgN/A
6:25 PM61 °FScattered clouds.8 mph68%29.95 "HgN/A
5:55 PM63 °FPartly sunny.7 mph64%29.95 "HgN/A
5:25 PM61 °FMostly cloudy.6 mph68%29.95 "HgN/A
4:55 PM61 °FPartly sunny.7 mph72%29.95 "HgN/A
4:25 PM59 °FLight rain. Partly sunny.5 mph77%29.98 "HgN/A
Weather by CustomWeather, © 2014

See weather overviewHow to use our weather pages